Amateur radio
NORAD ID: 22826
Int'l Code: 1993-061D
Perigee: 793.1 km
Apogee: 805.7 km
Inclination: 98.6 °
Period: 100.7 minutes
Semi major axis: 7170 km
Launch date: September 26, 1993
Source: Portugal (POR)
Comments: ITAMSAT is an Italian microsatellite that was launched along with SPOT 3. It is intended to receive and retransmit amateur radio communications. Initial orbital parameters are period 100.9 min, apogee 823 km, perigee 799 km, and inclination 98.6 deg.
Two Line Element Set (TLE):
1 22826U 93061D 13142.80301522 .00000132 00000-0 68184-4 0 1462
2 22826 098.6108 087.3898 0008748 003.9375 058.2006 14.29846255 25139
Source: AFSPC
NASA's NSSDC Master Catalog entry for ITAMSAT